Weather History for KBQP - December, 2013

Change the Weather History Date:

Wednesday, December 4, 2013

  Actual Average (KMLU) Record (KMLU)
Temperature  
Mean Temperature 74 °F 50 °F  
Max Temperature 81 °F 62 °F 82 °F (1933)
Min Temperature 67 °F 39 °F 22 °F (1989)
Degree Days  
Heating Degree Days 0 15  
Month to date heating degree days 58  
Since 1 July heating degree days 430  
Cooling Degree Days 9 0  
Month to date cooling degree days 0  
Year to date cooling degree days 2508  
Growing Degree Days 24 (Base 50)    
Moisture  
Dew Point 65 °F    
Average Humidity 77    
Maximum Humidity 89    
Minimum Humidity 54    
Precipitation  
Precipitation 0.00 in 0.17 in 1.83 in (2002)
Month to date precipitation 0.70  
Year to date precipitation 49.43  
Snow  
Snow 0.00 in - - ()
Month to date snowfall  
Since 1 July snowfall  
Snow Depth -    
Sea Level Pressure  
Sea Level Pressure 29.78 in    
Wind  
Wind Speed 6 mph (South)    
Max Wind Speed 16 mph    
Max Gust Speed 24 mph    
Visibility 9 miles    
Events      
T = Trace of Precipitation, MM = Missing Value Source: NWS Daily Summary

Daily Weather History Graph

Daily Weather History Graph

Search for Another Location

Airport or City:

Trip Planner

Search our weather history database for the weather conditions in past years. The results will help you decide how hot, cold, wet, or windy it might be!

Date:

Astronomy

Dec. 04, 2013 Rise Set
Actual Time 6:54 AM CST 5:01 PM CST
Civil Twilight 6:27 AM CST 5:28 PM CST
Nautical Twilight 5:57 AM CST 5:58 PM CST
Astronomical Twilight 5:27 AM CST 6:28 PM CST
Moon 8:25 AM CST (12/4) 7:09 PM CST (12/4)
Length of Visible Light 11h 00m
Length of Day
10h 06m
Waxing Crescent, 4% of the Moon is Illuminated
Dec 4
Waxing Crescent
Dec 9
First Quarter
Dec 17
Full
Dec 25
Last Quarter
Jan 1
New

Hourly Weather History & Observations

Time (CST) Temp. Heat Index Dew Point Humidity Pressure Visibility Wind Dir Wind Speed Gust Speed Precip Events Conditions
12:15 AM 68.9 °F - 63.5 °F 83% 29.72 in 10.0 mi South 10.4 mph - N/A   Overcast
12:35 AM 68.9 °F - 63.5 °F 83% 29.72 in 10.0 mi South 6.9 mph - N/A   Overcast
12:55 AM 68.5 °F - 63.5 °F 84% 29.72 in 10.0 mi South 3.5 mph - N/A   Mostly Cloudy
1:15 AM 68.7 °F - 63.5 °F 83% 29.72 in 10.0 mi South 8.1 mph 16.1 mph N/A   Overcast
1:35 AM 68.2 °F - 63.5 °F 85% 29.72 in 10.0 mi South 5.8 mph - N/A   Mostly Cloudy
1:55 AM 67.5 °F - 63.0 °F 85% 29.72 in 10.0 mi Calm Calm - N/A   Mostly Cloudy
2:15 AM 67.3 °F - 63.0 °F 86% 29.72 in 10.0 mi Calm Calm - N/A   Mostly Cloudy
2:35 AM 67.6 °F - 63.3 °F 86% 29.73 in 10.0 mi Calm Calm - N/A   Overcast
2:55 AM 68.0 °F - 63.3 °F 85% 29.73 in 10.0 mi Calm Calm - N/A   Overcast
3:15 AM 67.6 °F - 63.3 °F 86% 29.73 in 10.0 mi Calm Calm - N/A   Overcast
3:35 AM 67.5 °F - 63.5 °F 87% 29.73 in 10.0 mi South 8.1 mph - N/A   Overcast
3:55 AM 67.3 °F - 63.7 °F 88% 29.73 in 10.0 mi Calm Calm - N/A   Scattered Clouds
4:15 AM 67.3 °F - 63.9 °F 89% 29.73 in 7.0 mi South 4.6 mph - N/A   Scattered Clouds
4:35 AM 67.8 °F - 64.4 °F 89% 29.73 in 7.0 mi South 6.9 mph - N/A   Mostly Cloudy
4:55 AM 67.6 °F - 64.2 °F 89% 29.73 in 7.0 mi South 8.1 mph - N/A   Scattered Clouds
5:15 AM 68.2 °F - 64.6 °F 88% 29.74 in 7.0 mi South 9.2 mph - N/A   Clear
5:35 AM 68.7 °F - 64.9 °F 88% 29.74 in 7.0 mi South 10.4 mph 16.1 mph N/A   Scattered Clouds
5:55 AM 68.9 °F - 64.9 °F 87% 29.75 in 7.0 mi South 9.2 mph 17.3 mph N/A   Overcast
6:15 AM 69.6 °F - 65.3 °F 86% 29.76 in 10.0 mi South 9.2 mph 19.6 mph N/A   Overcast
6:35 AM 69.8 °F - 65.3 °F 86% 29.76 in 10.0 mi South 9.2 mph - N/A   Overcast
6:55 AM 70.0 °F - 65.5 °F 86% 29.77 in 10.0 mi South 8.1 mph - N/A   Overcast
7:15 AM 69.8 °F - 65.5 °F 86% 29.78 in 7.0 mi South 9.2 mph - N/A   Overcast
7:35 AM 69.8 °F - 65.7 °F 87% 29.79 in 5.0 mi South 5.8 mph 16.1 mph N/A   Overcast
7:55 AM 70.0 °F - 65.7 °F 86% 29.79 in 5.0 mi South 6.9 mph - N/A   Overcast
8:15 AM 70.2 °F - 65.8 °F 86% 29.80 in 5.0 mi South 8.1 mph - N/A   Overcast
8:35 AM 70.5 °F - 66.2 °F 86% 29.81 in 5.0 mi South 9.2 mph - N/A   Haze
8:55 AM 71.2 °F - 66.2 °F 84% 29.81 in 5.0 mi South 12.7 mph 19.6 mph N/A   Haze
9:15 AM 71.6 °F - 66.2 °F 83% 29.82 in 5.0 mi South 10.4 mph 17.3 mph N/A   Haze
9:35 AM 72.5 °F - 66.2 °F 81% 29.82 in 5.0 mi South 3.5 mph 18.4 mph N/A   Haze
9:55 AM 73.4 °F - 66.2 °F 78% 29.82 in 7.0 mi SSW 10.4 mph 17.3 mph N/A   Overcast
10:15 AM 75.0 °F - 65.8 °F 73% 29.82 in 7.0 mi SSW 9.2 mph - N/A   Overcast
10:35 AM 75.2 °F - 65.3 °F 71% 29.82 in 7.0 mi South 9.2 mph 18.4 mph N/A   Overcast
10:55 AM 76.5 °F - 64.6 °F 67% 29.82 in 10.0 mi South 12.7 mph 19.6 mph N/A   Mostly Cloudy
11:15 AM 77.7 °F - 64.2 °F 63% 29.81 in 10.0 mi SSW 15.0 mph 24.2 mph N/A   Mostly Cloudy
11:35 AM 77.5 °F - 64.2 °F 63% 29.80 in 7.0 mi SSW 12.7 mph 19.6 mph N/A   Mostly Cloudy
11:55 AM 77.7 °F - 63.9 °F 62% 29.79 in 10.0 mi SSW 16.1 mph 21.9 mph N/A   Scattered Clouds
12:15 PM 78.4 °F - 63.7 °F 60% 29.78 in 10.0 mi South 12.7 mph 20.7 mph N/A   Mostly Cloudy
12:35 PM 79.0 °F - 63.9 °F 60% 29.77 in 10.0 mi SSW 11.5 mph 21.9 mph N/A   Mostly Cloudy
12:55 PM 80.2 °F 81.8 °F 63.9 °F 57% 29.76 in 10.0 mi SSW 8.1 mph 18.4 mph N/A   Scattered Clouds
1:15 PM 80.1 °F 81.5 °F 63.1 °F 56% 29.76 in 10.0 mi South 13.8 mph 23.0 mph N/A   Mostly Cloudy
1:35 PM 79.9 °F - 63.5 °F 57% 29.75 in 10.0 mi South 11.5 mph 19.6 mph N/A   Mostly Cloudy
1:55 PM 81.1 °F 82.5 °F 63.7 °F 55% 29.74 in 10.0 mi South 11.5 mph 18.4 mph N/A   Mostly Cloudy
2:15 PM 81.9 °F 83.2 °F 63.7 °F 54% 29.74 in 10.0 mi South 12.7 mph 23.0 mph N/A   Scattered Clouds
2:35 PM 80.2 °F 81.8 °F 63.7 °F 57% 29.74 in 10.0 mi South 12.7 mph 20.7 mph N/A   Scattered Clouds
2:55 PM 79.9 °F - 63.9 °F 58% 29.74 in 10.0 mi South 11.5 mph 19.6 mph N/A   Scattered Clouds
3:15 PM 80.2 °F 81.8 °F 63.5 °F 57% 29.74 in 10.0 mi South 8.1 mph 17.3 mph N/A   Scattered Clouds
3:35 PM 79.7 °F - 63.5 °F 58% 29.74 in 10.0 mi South 6.9 mph - N/A   Clear
3:55 PM 79.5 °F - 63.5 °F 58% 29.75 in 10.0 mi South 5.8 mph 16.1 mph N/A   Clear
4:15 PM 78.6 °F - 63.5 °F 60% 29.75 in 10.0 mi South 6.9 mph - N/A   Clear
4:35 PM 77.4 °F - 63.5 °F 62% 29.76 in 10.0 mi Calm Calm - N/A   Clear
4:55 PM 76.1 °F - 63.9 °F 66% 29.76 in 10.0 mi Calm Calm - N/A   Clear
5:15 PM 74.3 °F - 63.7 °F 69% 29.77 in 10.0 mi Calm Calm - N/A   Clear
5:35 PM 74.1 °F - 63.7 °F 70% 29.77 in 10.0 mi Calm Calm - N/A   Scattered Clouds
5:55 PM 72.5 °F - 63.7 °F 74% 29.78 in 10.0 mi Calm Calm - N/A   Scattered Clouds
6:15 PM 72.3 °F - 63.7 °F 74% 29.79 in 10.0 mi Calm Calm - N/A   Clear
6:35 PM 71.4 °F - 63.9 °F 77% 29.79 in 10.0 mi Calm Calm - N/A   Clear
6:55 PM 71.4 °F - 64.2 °F 78% 29.80 in 10.0 mi Calm Calm - N/A   Clear
7:15 PM 71.2 °F - 64.4 °F 79% 29.81 in 10.0 mi Calm Calm - N/A   Scattered Clouds
7:35 PM 71.6 °F - 64.9 °F 79% 29.81 in 10.0 mi Calm Calm - N/A   Clear
7:55 PM 71.4 °F - 64.8 °F 79% 29.82 in 10.0 mi Calm Calm - N/A   Clear
8:15 PM 70.7 °F - 64.6 °F 81% 29.82 in 10.0 mi Calm Calm - N/A   Clear
8:35 PM 70.7 °F - 65.3 °F 83% 29.82 in 7.0 mi Calm Calm - N/A   Scattered Clouds
8:55 PM 70.9 °F - 65.5 °F 83% 29.82 in 7.0 mi Calm Calm - N/A   Clear
9:15 PM 70.9 °F - 65.5 °F 83% 29.83 in 7.0 mi Calm Calm - N/A   Clear
9:35 PM 70.7 °F - 65.7 °F 84% 29.84 in 10.0 mi Calm Calm - N/A   Clear
9:55 PM 70.9 °F - 65.8 °F 84% 29.84 in 7.0 mi Calm Calm - N/A   Scattered Clouds
10:15 PM 71.2 °F - 66.4 °F 85% 29.85 in 7.0 mi Calm Calm - N/A   Overcast
10:35 PM 72.5 °F - 67.1 °F 83% 29.85 in 10.0 mi South 4.6 mph - N/A   Overcast
10:55 PM 72.3 °F - 67.1 °F 84% 29.86 in 10.0 mi Calm Calm - N/A   Mostly Cloudy
11:15 PM 72.1 °F - 67.1 °F 84% 29.86 in 7.0 mi Calm Calm - N/A   Scattered Clouds
11:35 PM 71.6 °F - 67.1 °F 86% 29.86 in 7.0 mi Calm Calm - N/A   Mostly Cloudy
11:55 PM 71.2 °F - 66.7 °F 86% 29.87 in 7.0 mi Calm Calm - N/A   Overcast